STARLINK-34845 (65289 NORAD) Tracking and Keplerian Element Data

This shows tracking and keplerian element data for the satellite.

Feedback or suggestion? Click here.




ElementValue
Catalog65289
NameSTARLINK-34845
Epoch Orbit1933
Epoch Day354.13897931
Epoch Year2025
RAAN44.288
Inclination97.6057
Eccentricity0.0001622
Argument of Perigee89.0422
Mean Anonmoly271.0991
Mean Motion15.05673064
Decay Rate4.504E-05
L11 65289U 25184S 25354.13897931 .00004504 00000+0 31595-3 0 9998
L22 65289 97.6057 44.2880 0001622 89.0422 271.0991 15.05673064 19330



Live tracking and technical data element details for STARLINK-34845 (NORAD 65289). STARLINK-34845 can be tracked NOW for your location showing map with azimuth and elevation plus other details from your city location.







IsCatalogInMostPopularTable: catalog: 65289, numindb: 7
Update: records affected: 1



GetName: 65289 STARLINK-34845

Hit Count: updated at: Sat, 11 Apr 2026 21:31:36 GMT